Time,TemperatureF,DewpointF,PressureIn,WindDirection,WindDirectionDegrees,WindSpeedMPH,WindSpeedGustMPH,Humidity,HourlyPrecipIn,Conditions,Clouds,dailyrainin,SolarRadiationWatts/m^2,SoftwareType,DateUTC
2013-10-28 00:07:00,30.3,23.0,30.01,WSW,255,31.0,42.0,74,0.00,,,0.00,62,weatherlink.com 1.10,2013-10-28 06:07:00,
2013-10-28 00:22:00,30.1,23.0,30.02,WSW,258,26.0,38.0,76,0.00,,,0.00,62,weatherlink.com 1.10,2013-10-28 06:22:00,
2013-10-28 00:37:00,29.3,24.0,30.02,WSW,251,34.0,36.0,82,0.00,,,0.00,60,weatherlink.com 1.10,2013-10-28 06:37:00,
2013-10-28 00:52:00,28.9,24.0,30.03,WSW,251,27.0,36.0,83,0.00,,,0.00,60,weatherlink.com 1.10,2013-10-28 06:52:00,
2013-10-28 01:07:00,28.4,24.0,30.05,WSW,255,24.0,35.0,82,0.00,,,0.00,37,weatherlink.com 1.10,2013-10-28 07:07:00,
2013-10-28 01:22:00,28.0,23.0,30.04,West,260,30.0,36.0,81,0.00,,,0.00,35,weatherlink.com 1.10,2013-10-28 07:22:00,
2013-10-28 01:37:00,27.7,23.0,30.04,West,260,27.0,38.0,81,0.00,,,0.00,30,weatherlink.com 1.10,2013-10-28 07:37:00,
2013-10-28 01:52:00,27.0,23.0,30.04,West,260,28.0,36.0,86,0.00,,,0.00,5,weatherlink.com 1.10,2013-10-28 07:52:00,
2013-10-28 02:07:00,27.2,23.0,30.05,West,264,26.0,33.0,85,0.00,,,0.00,53,weatherlink.com 1.10,2013-10-28 08:07:00,
2013-10-28 02:22:00,26.9,22.0,30.04,WSW,255,30.0,34.0,81,0.00,,,0.00,69,weatherlink.com 1.10,2013-10-28 08:22:00,
2013-10-28 02:37:00,26.7,21.0,30.04,West,265,28.0,35.0,80,0.00,,,0.00,32,weatherlink.com 1.10,2013-10-28 08:37:00,
2013-10-28 02:52:00,26.5,21.0,30.05,West,263,27.0,32.0,80,0.00,,,0.00,67,weatherlink.com 1.10,2013-10-28 08:52:00,
2013-10-28 03:07:00,26.3,21.0,30.04,WSW,247,28.0,33.0,79,0.00,,,0.00,0,weatherlink.com 1.10,2013-10-28 09:07:00,
2013-10-28 03:22:00,25.8,20.0,30.05,WSW,250,24.0,35.0,77,0.00,,,0.00,47,weatherlink.com 1.10,2013-10-28 09:22:00,
2013-10-28 03:37:00,26.0,19.0,30.05,West,266,27.0,34.0,76,0.00,,,0.00,65,weatherlink.com 1.10,2013-10-28 09:37:00,
2013-10-28 03:52:00,25.6,19.0,30.05,WSW,257,30.0,35.0,75,0.00,,,0.00,28,weatherlink.com 1.10,2013-10-28 09:52:00,
2013-10-28 04:07:00,25.4,19.0,30.05,West,262,27.0,35.0,77,0.00,,,0.00,63,weatherlink.com 1.10,2013-10-28 10:07:00,
2013-10-28 04:22:00,25.0,18.0,30.05,West,266,20.0,32.0,76,0.00,,,0.00,0,weatherlink.com 1.10,2013-10-28 10:22:00,
2013-10-28 04:37:00,24.7,18.0,30.05,West,268,23.0,35.0,74,0.00,,,0.00,44,weatherlink.com 1.10,2013-10-28 10:37:00,
2013-10-28 04:52:00,24.5,18.0,30.05,West,263,30.0,34.0,76,0.00,,,0.00,60,weatherlink.com 1.10,2013-10-28 10:52:00,
2013-10-28 05:07:00,24.1,17.0,30.06,WSW,258,28.0,31.0,74,0.00,,,0.00,0,weatherlink.com 1.10,2013-10-28 11:07:00,
2013-10-28 05:22:00,24.4,18.0,30.06,West,262,27.0,33.0,76,0.00,,,0.00,42,weatherlink.com 1.10,2013-10-28 11:22:00,
2013-10-28 05:37:00,24.0,17.0,30.06,West,264,29.0,33.0,76,0.00,,,0.00,0,weatherlink.com 1.10,2013-10-28 11:37:00,
2013-10-28 05:52:00,24.0,17.0,30.06,West,260,25.0,34.0,76,0.00,,,0.00,42,weatherlink.com 1.10,2013-10-28 11:52:00,
2013-10-28 06:07:00,23.7,17.0,30.06,West,268,28.0,31.0,76,0.00,,,0.00,56,weatherlink.com 1.10,2013-10-28 12:07:00,
2013-10-28 06:22:00,23.5,17.0,30.06,West,262,28.0,32.0,75,0.00,,,0.00,25,weatherlink.com 1.10,2013-10-28 12:22:00,
2013-10-28 06:37:00,23.4,16.0,30.07,WSW,256,29.0,32.0,73,0.00,,,0.00,40,weatherlink.com 1.10,2013-10-28 12:37:00,
2013-10-28 06:53:00,23.2,17.0,30.07,West,263,27.0,32.0,76,0.00,,,0.00,54,weatherlink.com 1.10,2013-10-28 12:53:00,
2013-10-28 07:08:00,23.3,17.0,30.07,West,263,23.0,31.0,77,0.00,,,0.00,40,weatherlink.com 1.10,2013-10-28 13:08:00,
2013-10-28 07:23:00,23.1,17.0,30.08,West,275,26.0,33.0,77,0.00,,,0.00,69,weatherlink.com 1.10,2013-10-28 13:23:00,
2013-10-28 07:38:00,22.8,17.0,30.08,West,265,24.0,29.0,77,0.00,,,0.00,39,weatherlink.com 1.10,2013-10-28 13:38:00,
2013-10-28 07:53:00,22.8,17.0,30.08,WSW,254,22.0,32.0,78,0.00,,,0.00,65,weatherlink.com 1.10,2013-10-28 13:53:00,
2013-10-28 08:08:00,22.7,16.0,30.08,West,267,24.0,32.0,76,0.00,,,0.00,0,weatherlink.com 1.10,2013-10-28 14:08:00,
2013-10-28 08:23:00,22.6,17.0,30.09,West,263,25.0,29.0,78,0.00,,,0.00,39,weatherlink.com 1.10,2013-10-28 14:23:00,
2013-10-28 08:38:00,22.3,17.0,30.10,West,259,23.0,29.0,81,0.00,,,0.00,0,weatherlink.com 1.10,2013-10-28 14:38:00,
2013-10-28 08:53:00,22.1,18.0,30.11,West,263,25.0,29.0,83,0.00,,,0.00,0,weatherlink.com 1.10,2013-10-28 14:53:00,
2013-10-28 09:08:00,22.0,18.0,30.10,West,264,20.0,28.0,84,0.00,,,0.00,0,weatherlink.com 1.10,2013-10-28 15:08:00,
2013-10-28 09:23:00,21.8,17.0,30.11,West,267,21.0,29.0,83,0.00,,,0.00,0,weatherlink.com 1.10,2013-10-28 15:23:00,
2013-10-28 09:38:00,21.4,17.0,30.12,West,271,20.0,26.0,84,0.00,,,0.00,0,weatherlink.com 1.10,2013-10-28 15:38:00,
2013-10-28 09:53:00,21.1,18.0,30.12,West,266,21.0,28.0,86,0.00,,,0.00,0,weatherlink.com 1.10,2013-10-28 15:53:00,
2013-10-28 10:08:00,20.9,18.0,30.13,West,262,25.0,26.0,88,0.00,,,0.00,0,weatherlink.com 1.10,2013-10-28 16:08:00,
2013-10-28 10:23:00,20.9,18.0,30.12,West,261,20.0,27.0,89,0.00,,,0.00,0,weatherlink.com 1.10,2013-10-28 16:23:00,
2013-10-28 10:38:00,20.9,18.0,30.12,WSW,258,25.0,30.0,89,0.00,,,0.00,0,weatherlink.com 1.10,2013-10-28 16:38:00,
2013-10-28 10:53:00,20.9,18.0,30.13,West,259,22.0,28.0,87,0.00,,,0.00,0,weatherlink.com 1.10,2013-10-28 16:53:00,
2013-10-28 11:08:00,21.4,18.0,30.13,WSW,255,25.0,29.0,87,0.00,,,0.00,0,weatherlink.com 1.10,2013-10-28 17:08:00,
2013-10-28 11:23:00,21.5,18.0,30.13,WSW,256,25.0,28.0,86,0.00,,,0.00,0,weatherlink.com 1.10,2013-10-28 17:23:00,
2013-10-28 11:38:00,22.0,18.0,30.13,West,263,25.0,30.0,85,0.00,,,0.00,0,weatherlink.com 1.10,2013-10-28 17:38:00,
2013-10-28 11:53:00,21.5,17.0,30.12,West,263,22.0,30.0,83,0.00,,,0.00,0,weatherlink.com 1.10,2013-10-28 17:53:00,
2013-10-28 12:08:00,21.8,17.0,30.12,WSW,255,25.0,31.0,83,0.00,,,0.00,0,weatherlink.com 1.10,2013-10-28 18:08:00,
2013-10-28 12:23:00,22.0,17.0,30.12,WSW,253,25.0,31.0,81,0.00,,,0.00,0,weatherlink.com 1.10,2013-10-28 18:23:00,
2013-10-28 12:38:00,22.2,17.0,30.11,WSW,253,24.0,31.0,79,0.00,,,0.00,0,weatherlink.com 1.10,2013-10-28 18:38:00,
2013-10-28 12:53:00,22.7,17.0,30.12,WSW,258,24.0,31.0,79,0.00,,,0.00,0,weatherlink.com 1.10,2013-10-28 18:53:00,
2013-10-28 13:08:00,22.9,16.0,30.11,WSW,249,27.0,32.0,74,0.00,,,0.00,0,weatherlink.com 1.10,2013-10-28 19:08:00,
2013-10-28 13:23:00,22.8,15.0,30.11,West,263,30.0,34.0,71,0.00,,,0.00,0,weatherlink.com 1.10,2013-10-28 19:23:00,
2013-10-28 13:38:00,22.5,15.0,30.11,WSW,256,27.0,36.0,72,0.00,,,0.00,0,weatherlink.com 1.10,2013-10-28 19:38:00,
2013-10-28 13:53:00,22.5,15.0,30.11,West,262,27.0,33.0,72,0.00,,,0.00,0,weatherlink.com 1.10,2013-10-28 19:53:00,
2013-10-28 14:08:00,23.0,16.0,30.11,WSW,256,25.0,31.0,74,0.00,,,0.00,0,weatherlink.com 1.10,2013-10-28 20:08:00,
2013-10-28 14:38:00,22.7,15.0,30.10,WSW,247,23.0,31.0,72,0.00,,,0.00,0,weatherlink.com 1.10,2013-10-28 20:38:00,
2013-10-28 14:53:00,22.8,15.0,30.10,WSW,251,30.0,33.0,72,0.00,,,0.00,0,weatherlink.com 1.10,2013-10-28 20:53:00,
2013-10-28 15:08:00,22.8,14.0,30.10,WSW,253,22.0,33.0,70,0.00,,,0.00,0,weatherlink.com 1.10,2013-10-28 21:08:00,
2013-10-28 15:23:00,22.8,15.0,30.11,WSW,244,24.0,33.0,72,0.00,,,0.00,0,weatherlink.com 1.10,2013-10-28 21:23:00,
2013-10-28 15:38:00,22.7,15.0,30.12,West,260,25.0,33.0,72,0.00,,,0.00,0,weatherlink.com 1.10,2013-10-28 21:38:00,
2013-10-28 15:53:00,22.8,16.0,30.12,WSW,247,25.0,32.0,74,0.00,,,0.00,0,weatherlink.com 1.10,2013-10-28 21:53:00,
2013-10-28 16:08:00,22.7,16.0,30.13,WSW,244,19.0,29.0,74,0.00,,,0.00,0,weatherlink.com 1.10,2013-10-28 22:08:00,
2013-10-28 16:23:00,22.6,15.0,30.13,West,259,23.0,30.0,73,0.00,,,0.00,0,weatherlink.com 1.10,2013-10-28 22:23:00,
2013-10-28 16:38:00,22.2,15.0,30.14,WSW,250,19.0,31.0,73,0.00,,,0.00,0,weatherlink.com 1.10,2013-10-28 22:38:00,
2013-10-28 16:53:00,22.3,15.0,30.14,WSW,253,22.0,28.0,72,0.00,,,0.00,0,weatherlink.com 1.10,2013-10-28 22:53:00,
2013-10-28 17:08:00,22.2,15.0,30.14,West,275,24.0,28.0,73,0.00,,,0.00,0,weatherlink.com 1.10,2013-10-28 23:08:00,
2013-10-28 17:23:00,22.1,14.0,30.14,West,261,22.0,30.0,72,0.00,,,0.00,0,weatherlink.com 1.10,2013-10-28 23:23:00,
2013-10-28 17:38:00,22.1,15.0,30.14,West,268,27.0,29.0,74,0.00,,,0.00,0,weatherlink.com 1.10,2013-10-28 23:38:00,
2013-10-28 17:53:00,21.6,14.0,30.14,WSW,250,26.0,32.0,73,0.00,,,0.00,0,weatherlink.com 1.10,2013-10-28 23:53:00,
2013-10-28 18:08:00,21.5,14.0,30.14,West,263,24.0,30.0,72,0.00,,,0.00,9,weatherlink.com 1.10,2013-10-29 00:08:00,
2013-10-28 18:23:00,21.5,14.0,30.15,WSW,254,24.0,29.0,74,0.00,,,0.00,0,weatherlink.com 1.10,2013-10-29 00:23:00,
2013-10-28 18:38:00,21.4,15.0,30.16,WSW,254,27.0,28.0,75,0.00,,,0.00,19,weatherlink.com 1.10,2013-10-29 00:38:00,
2013-10-28 18:53:00,21.4,15.0,30.17,West,262,23.0,26.0,76,0.00,,,0.00,62,weatherlink.com 1.10,2013-10-29 00:53:00,
2013-10-28 19:08:00,21.1,14.0,30.17,West,275,24.0,27.0,75,0.00,,,0.00,19,weatherlink.com 1.10,2013-10-29 01:08:00,
2013-10-28 19:23:00,20.9,14.0,30.18,West,275,26.0,26.0,74,0.00,,,0.00,62,weatherlink.com 1.10,2013-10-29 01:23:00,
2013-10-28 19:38:00,21.0,15.0,30.18,West,264,20.0,25.0,76,0.00,,,0.00,35,weatherlink.com 1.10,2013-10-29 01:38:00,
2013-10-28 19:53:00,20.8,14.0,30.19,West,280,19.0,24.0,76,0.00,,,0.00,47,weatherlink.com 1.10,2013-10-29 01:53:00,
2013-10-28 20:08:00,20.8,14.0,30.20,West,275,19.0,22.0,76,0.00,,,0.00,0,weatherlink.com 1.10,2013-10-29 02:08:00,
2013-10-28 20:23:00,20.7,15.0,30.20,West,275,18.0,22.0,77,0.00,,,0.00,60,weatherlink.com 1.10,2013-10-29 02:23:00,
2013-10-28 20:38:00,20.9,15.0,30.20,West,280,15.0,21.0,77,0.00,,,0.00,33,weatherlink.com 1.10,2013-10-29 02:38:00,
2013-10-28 20:53:00,20.9,15.0,30.20,West,262,15.0,18.0,77,0.00,,,0.00,60,weatherlink.com 1.10,2013-10-29 02:53:00,
2013-10-28 21:08:00,20.8,14.0,30.21,West,266,14.0,17.0,76,0.00,,,0.00,35,weatherlink.com 1.10,2013-10-29 03:08:00,
2013-10-28 21:23:00,20.7,15.0,30.21,West,275,14.0,17.0,77,0.00,,,0.00,0,weatherlink.com 1.10,2013-10-29 03:23:00,
2013-10-28 21:38:00,20.9,15.0,30.23,West,280,13.0,14.0,77,0.00,,,0.00,35,weatherlink.com 1.10,2013-10-29 03:38:00,
2013-10-28 21:54:00,20.7,15.0,30.23,West,260,12.0,15.0,77,0.00,,,0.00,0,weatherlink.com 1.10,2013-10-29 03:54:00,
2013-10-28 22:09:00,20.6,14.0,30.24,West,270,9.0,14.0,77,0.00,,,0.00,33,weatherlink.com 1.10,2013-10-29 04:09:00,
2013-10-28 22:24:00,20.7,15.0,30.23,West,270,9.0,14.0,78,0.00,,,0.00,0,weatherlink.com 1.10,2013-10-29 04:24:00,
2013-10-28 22:39:00,20.4,15.0,30.22,WSW,258,12.0,15.0,78,0.00,,,0.00,47,weatherlink.com 1.10,2013-10-29 04:39:00,
2013-10-28 22:54:00,20.5,15.0,30.22,West,265,13.0,14.0,78,0.00,,,0.00,0,weatherlink.com 1.10,2013-10-29 04:54:00,
2013-10-28 23:09:00,20.6,15.0,30.22,WNW,285,9.0,13.0,80,0.00,,,0.00,46,weatherlink.com 1.10,2013-10-29 05:09:00,
2013-10-28 23:24:00,20.5,15.0,30.21,WNW,302,8.0,11.0,78,0.00,,,0.00,0,weatherlink.com 1.10,2013-10-29 05:24:00,
2013-10-28 23:39:00,20.4,15.0,30.21,NW,306,7.0,11.0,78,0.00,,,0.00,46,weatherlink.com 1.10,2013-10-29 05:39:00,
2013-10-28 23:54:00,20.5,15.0,30.21,WNW,299,5.0,8.0,79,0.00,,,0.00,0,weatherlink.com 1.10,2013-10-29 05:54:00,